Demopolis Municipal Airport, AL

8:31 AM CDT on September 19, 2019 (GMT -0500)
Demopolis Municipal Airport

Weather History for KDYA - July, 2019

Change the Weather History Date:

Saturday, July 27, 2019

  Actual Average (WUND) Record (WUND)
Temperature  
Mean Temperature 78 °F -  
Max Temperature 92 °F - - (-1)
Min Temperature 65 °F - - (-1)
Cooling Degree Days 14    
Growing Degree Days 28 (Base 50)    
Moisture  
Dew Point 64 °F    
Average Humidity 66    
Maximum Humidity 100    
Minimum Humidity 29    
Precipitation  
Precipitation 0.00 in - - ()
Sea Level Pressure  
Sea Level Pressure 30.20 in    
Wind  
Wind Speed 1 mph ()    
Max Wind Speed 9 mph    
Max Gust Speed -    
Visibility 7.6 miles    
Events      
Averages and records for this station are not official NWS values.
T = Trace of Precipitation, MM = Missing Value Source: Averaged Metar Reports

Daily Weather History Graph

Daily Weather History Graph

Search for Another Location

Airport or City:

Astronomy

Jul. 27, 2019 Rise Set
Actual Time 6:02 AM CDT 7:53 PM CDT
Civil Twilight 5:35 AM CDT 8:20 PM CDT
Nautical Twilight 5:02 AM CDT 8:53 PM CDT
Astronomical Twilight 4:28 AM CDT 9:27 PM CDT
Moon 1:45 AM CDT (7/27) 3:45 PM CDT (7/27)
Length of Visible Light 14h 44m
Length of Day
13h 50m
Waning Crescent, 24% of the Moon is Illuminated
Jul 27
Waning Crescent
Jul 31
New
Aug 7
First Quarter
Aug 15
Full
Aug 23
Last Quarter

Hourly Weather History & Observations

Time (CDT) Temp. Heat Index Dew Point Humidity Pressure Visibility Wind Dir Wind Speed Gust Speed Precip Events Conditions
12:15 AM 69.1 °F - 67.1 °F 93% 30.18 in 7.0 mi Calm Calm - N/A   Clear
12:35 AM 69.1 °F - 67.1 °F 93% 30.17 in 7.0 mi Calm Calm - N/A   Clear
12:55 AM 68.0 °F - 66.2 °F 94% 30.18 in 5.0 mi Calm Calm - N/A   Scattered Clouds
1:15 AM 68.2 °F - 66.6 °F 95% 30.17 in 7.0 mi Calm Calm - N/A   Scattered Clouds
1:35 AM 68.2 °F - 66.6 °F 95% 30.17 in 7.0 mi Calm Calm - N/A   Mostly Cloudy
1:55 AM 68.0 °F - 66.4 °F 95% 30.17 in 7.0 mi Calm Calm - N/A   Scattered Clouds
2:15 AM 68.0 °F - 66.4 °F 95% 30.17 in 7.0 mi Calm Calm - N/A   Clear
2:35 AM 68.0 °F - 66.0 °F 93% 30.16 in 7.0 mi Calm Calm - N/A   Scattered Clouds
2:55 AM 68.2 °F - 66.4 °F 94% 30.17 in 7.0 mi Calm Calm - N/A   Mostly Cloudy
3:15 AM 68.0 °F - 66.2 °F 94% 30.17 in 7.0 mi Calm Calm - N/A   Overcast
3:35 AM 68.2 °F - 66.6 °F 95% 30.17 in 7.0 mi Calm Calm - N/A   Mostly Cloudy
4:15 AM 67.6 °F - 65.8 °F 94% 30.18 in 7.0 mi Calm Calm - N/A   Clear
4:35 AM 67.1 °F - 65.5 °F 95% 30.19 in 5.0 mi Calm Calm - N/A   Clear
4:55 AM 66.6 °F - 65.3 °F 96% 30.19 in 5.0 mi Calm Calm - N/A   Clear
5:15 AM 66.4 °F - 65.3 °F 96% 30.20 in 5.0 mi Calm Calm - N/A   Clear
5:35 AM 66.2 °F - 65.3 °F 97% 30.21 in 7.0 mi Calm Calm - N/A   Clear
5:55 AM 66.6 °F - 66.0 °F 98% 30.21 in 7.0 mi Calm Calm - N/A   Clear
6:15 AM 65.8 °F - 65.3 °F 98% 30.22 in 7.0 mi Calm Calm - N/A   Clear
6:35 AM 65.7 °F - 65.5 °F 99% 30.23 in 5.0 mi Calm Calm - N/A   Clear
6:55 AM 66.2 °F - 66.2 °F 100% 30.23 in 7.0 mi Calm Calm - N/A   Clear
7:15 AM 67.6 °F - 67.5 °F 99% 30.24 in 7.0 mi Calm Calm - N/A   Clear
7:35 AM 69.6 °F - 68.2 °F 95% 30.24 in 7.0 mi Calm Calm - N/A   Clear
7:55 AM 71.6 °F - 66.9 °F 85% 30.25 in 7.0 mi Calm Calm - N/A   Clear
8:15 AM 74.1 °F - 68.0 °F 81% 30.25 in 7.0 mi Calm Calm - N/A   Clear
8:35 AM 77.2 °F - 68.7 °F 75% 30.25 in 7.0 mi East 3.5 mph - N/A   Clear
8:55 AM 79.0 °F - 68.9 °F 71% 30.25 in 7.0 mi East 3.5 mph - N/A   Clear
9:15 AM 80.6 °F 83.6 °F 69.3 °F 68% 30.25 in 7.0 mi ENE 3.5 mph - N/A   Clear
9:35 AM 81.5 °F 84.4 °F 68.4 °F 64% 30.25 in 7.0 mi Calm Calm - N/A   Clear
9:55 AM 83.1 °F 86.3 °F 68.5 °F 61% 30.25 in 5.0 mi Calm Calm - N/A   Haze
10:15 AM 85.1 °F 87.9 °F 67.3 °F 55% 30.26 in 7.0 mi East 3.5 mph - N/A   Clear
10:35 AM 86.2 °F 88.8 °F 66.6 °F 52% 30.26 in 7.0 mi Calm Calm - N/A   Clear
10:55 AM 86.2 °F 87.9 °F 65.1 °F 49% 30.25 in 10.0 mi SE 5.8 mph - N/A   Clear
11:15 AM 86.9 °F 88.6 °F 64.8 °F 48% 30.25 in 7.0 mi SE 3.5 mph - N/A   Clear
11:55 AM 87.8 °F 89.1 °F 63.9 °F 45% 30.24 in 10.0 mi ESE 4.6 mph - N/A   Clear
12:15 PM 88.2 °F 89.3 °F 63.5 °F 44% 30.24 in 10.0 mi ESE 5.8 mph - N/A   Clear
12:35 PM 88.2 °F 88.1 °F 61.3 °F 40% 30.23 in 10.0 mi Calm Calm - N/A   Clear
12:55 PM 89.6 °F 88.6 °F 58.8 °F 35% 30.22 in 10.0 mi East 3.5 mph - N/A   Clear
1:15 PM 90.1 °F 89.9 °F 61.0 °F 37% 30.22 in 7.0 mi ENE 4.6 mph - N/A   Clear
1:35 PM 90.3 °F 90.5 °F 61.9 °F 38% 30.21 in 7.0 mi NE 5.8 mph - N/A   Clear
1:55 PM 90.0 °F 90.3 °F 62.1 °F 39% 30.21 in 4.0 mi East 9.2 mph - N/A   Haze
2:15 PM 91.4 °F 90.4 °F 58.6 °F 33% 30.20 in 10.0 mi ENE 3.5 mph - N/A   Clear
2:35 PM 91.8 °F 90.9 °F 58.5 °F 33% 30.20 in 7.0 mi East 4.6 mph - N/A   Clear
2:55 PM 92.3 °F 91.6 °F 59.2 °F 33% 30.19 in 10.0 mi ESE 3.5 mph - N/A   Scattered Clouds
3:15 PM 92.7 °F 91.5 °F 57.6 °F 31% 30.18 in 7.0 mi East 5.8 mph - N/A   Scattered Clouds
3:35 PM 89.6 °F 88.1 °F 57.0 °F 33% 30.18 in 10.0 mi Calm Calm - N/A   Clear
3:55 PM 91.8 °F 90.0 °F 56.1 °F 30% 30.17 in 7.0 mi South 3.5 mph - N/A   Clear
4:15 PM 92.3 °F 90.7 °F 56.8 °F 30% 30.17 in 7.0 mi SSE 3.5 mph - N/A   Clear
4:35 PM 92.7 °F 90.9 °F 56.1 °F 29% 30.17 in 10.0 mi ESE 3.5 mph - N/A   Clear
4:55 PM 92.3 °F 90.5 °F 56.1 °F 29% 30.16 in 10.0 mi Calm Calm - N/A   Clear
5:15 PM 90.3 °F 88.5 °F 55.8 °F 31% 30.16 in 10.0 mi ENE 3.5 mph - N/A   Clear
5:35 PM 91.9 °F 90.3 °F 56.7 °F 30% 30.16 in 10.0 mi ESE 4.6 mph - N/A   Clear
5:55 PM 91.4 °F 89.9 °F 56.8 °F 31% 30.16 in 10.0 mi ESE 3.5 mph - N/A   Clear
6:15 PM 90.9 °F 89.4 °F 57.4 °F 32% 30.15 in 7.0 mi Calm Calm - N/A   Clear
6:35 PM 90.5 °F 89.8 °F 59.7 °F 35% 30.15 in 7.0 mi SE 4.6 mph - N/A   Clear
6:55 PM 89.1 °F 88.5 °F 59.4 °F 37% 30.15 in 10.0 mi Calm Calm - N/A   Clear
7:15 PM 87.6 °F 88.5 °F 63.0 °F 44% 30.15 in 10.0 mi Calm Calm - N/A   Clear
7:35 PM 84.4 °F 86.3 °F 65.5 °F 53% 30.15 in 10.0 mi Calm Calm - N/A   Clear
7:55 PM 80.8 °F 83.2 °F 67.1 °F 63% 30.16 in 7.0 mi Calm Calm - N/A   Clear
8:15 PM 77.5 °F - 67.3 °F 71% 30.16 in 7.0 mi Calm Calm - N/A   Clear
8:35 PM 75.2 °F - 67.5 °F 77% 30.16 in 10.0 mi Calm Calm - N/A   Clear
8:55 PM 74.8 °F - 67.5 °F 78% 30.17 in 7.0 mi Calm Calm - N/A   Clear
9:35 PM 73.4 °F - 68.0 °F 83% 30.17 in 7.0 mi Calm Calm - N/A   Clear
9:55 PM 72.5 °F - 67.8 °F 85% 30.17 in 7.0 mi Calm Calm - N/A   Clear
10:15 PM 71.6 °F - 67.6 °F 87% 30.18 in 7.0 mi Calm Calm - N/A   Clear